Weather reports worldwide

Advertisment
San Sebastian/Igueldo, Spain (8027): temperature & dewpoint: 08.11.2018 13:00:00 - 14.11.2018 13:00:00 (CET)San Sebastian/Igueldo, Spain (8027): wind speed: 08.11.2018 13:00:00 - 14.11.2018 13:00:00 (CET)San Sebastian/Igueldo, Spain (8027): wind direction: 08.11.2018 13:00:00 - 14.11.2018 13:00:00 (CET)San Sebastian/Igueldo, Spain (8027): reduced air pressure: 08.11.2018 13:00:00 - 14.11.2018 13:00:00 (CET)San Sebastian/Igueldo, Spain (8027): visibility: 08.11.2018 13:00:00 - 14.11.2018 13:00:00 (CET)
Date & Time tt [°C] td [°C] ff [km/h] ff [kn] dd ppp [hPa] vv [km]
14.11.2018 13:00:00 19,2 9,9 35 19 SSE 1020,2 35
14.11.2018 12:00:00 - - - - - - -
14.11.2018 11:00:00 - - - - - - -
14.11.2018 10:00:00 16,6 10,7 35 19 SSE 1021,6 45
14.11.2018 09:00:00 - - - - - - -
14.11.2018 08:00:00 - - - - - - -
14.11.2018 07:00:00 15,6 10,8 35 19 SSE 1021,6 45
14.11.2018 06:00:00 - - - - - - -
14.11.2018 05:00:00 - - - - - - -
14.11.2018 04:00:00 14,6 10,8 28 15 SSE 1022,7 30
14.11.2018 03:00:00 - - - - - - -
14.11.2018 02:00:00 - - - - - - -
14.11.2018 01:00:00 12,8 10,9 16 9 SE 1024,3 30
14.11.2018 00:00:00 - - - - - - -
13.11.2018 23:00:00 - - - - - - -
13.11.2018 22:00:00 11,9 11,0 0 0 N 1025,8 30
13.11.2018 21:00:00 - - - - - - -
13.11.2018 20:00:00 - - - - - - -
13.11.2018 19:00:00 12,9 11,6 2 1 S 1026,1 30
13.11.2018 18:00:00 - - - - - - -
13.11.2018 17:00:00 - - - - - - -
13.11.2018 16:00:00 12,6 12,3 11 6 N 1026,5 30
13.11.2018 15:00:00 - - - - - - -
13.11.2018 14:00:00 - - - - - - -
13.11.2018 13:00:00 12,4 12,4 4 2 ESE 1027,3 11
13.11.2018 12:00:00 - - - - - - -
13.11.2018 11:00:00 - - - - - - -
13.11.2018 10:00:00 11,4 11,4 5 3 NNE 1027,5 1,2
13.11.2018 09:00:00 - - - - - - -
13.11.2018 08:00:00 - - - - - - -
13.11.2018 07:00:00 11,0 11,0 8 4 N 1026,6 2,0
13.11.2018 06:00:00 - - - - - - -
13.11.2018 05:00:00 - - - - - - -
13.11.2018 04:00:00 11,0 11,0 4 2 E 1025,0 18
13.11.2018 03:00:00 - - - - - - -
13.11.2018 02:00:00 - - - - - - -
13.11.2018 01:00:00 11,2 11,2 8 4 N 1024,1 0,1
13.11.2018 00:00:00 - - - - - - -
12.11.2018 23:00:00 - - - - - - -
12.11.2018 22:00:00 11,4 11,4 15 8 NW 1022,0 0,2
12.11.2018 21:00:00 - - - - - - -
12.11.2018 20:00:00 - - - - - - -
12.11.2018 19:00:00 11,6 11,6 4 2 NNW 1019,6 0,2
12.11.2018 18:00:00 - - - - - - -
12.11.2018 17:00:00 - - - - - - -
12.11.2018 16:00:00 11,2 11,2 8 4 NNE 1017,7 0,2
12.11.2018 15:00:00 - - - - - - -
12.11.2018 14:00:00 - - - - - - -
12.11.2018 13:00:00 10,8 10,8 5 3 NNE 1017,7 0,8
12.11.2018 12:00:00 - - - - - - -
12.11.2018 11:00:00 - - - - - - -
12.11.2018 10:00:00 10,6 10,6 11 6 N 1016,4 0,2
12.11.2018 09:00:00 - - - - - - -
12.11.2018 08:00:00 - - - - - - -
12.11.2018 07:00:00 11,0 11,0 13 7 NW 1013,6 8
12.11.2018 06:00:00 - - - - - - -
12.11.2018 05:00:00 - - - - - - -
12.11.2018 04:00:00 11,4 11,4 21 11 WNW 1010,7 0,2
12.11.2018 03:00:00 - - - - - - -
12.11.2018 02:00:00 - - - - - - -
12.11.2018 01:00:00 12,0 12,0 11 6 N 1009,1 0,2
12.11.2018 00:00:00 - - - - - - -
11.11.2018 23:00:00 - - - - - - -
11.11.2018 22:00:00 12,2 12,2 11 6 W 1009,1 0,5
11.11.2018 21:00:00 - - - - - - -
11.11.2018 20:00:00 - - - - - - -
11.11.2018 19:00:00 13,1 12,2 9 5 W 1009,1 12
11.11.2018 18:00:00 - - - - - - -
11.11.2018 17:00:00 - - - - - - -
11.11.2018 16:00:00 18,4 9,5 31 17 SSE 1008,1 50
11.11.2018 15:00:00 - - - - - - -
11.11.2018 14:00:00 - - - - - - -
11.11.2018 13:00:00 18,6 8,3 50 27 SSE 1008,0 55
11.11.2018 12:00:00 - - - - - - -
11.11.2018 11:00:00 - - - - - - -
11.11.2018 10:00:00 17,4 7,2 48 26 S 1008,6 40
11.11.2018 09:00:00 - - - - - - -
11.11.2018 08:00:00 - - - - - - -
11.11.2018 07:00:00 15,7 5,6 34 18 SSE 1008,3 50
11.11.2018 06:00:00 - - - - - - -
11.11.2018 05:00:00 - - - - - - -
11.11.2018 04:00:00 16,0 4,7 37 20 SSE 1008,6 50
11.11.2018 03:00:00 - - - - - - -
11.11.2018 02:00:00 - - - - - - -
11.11.2018 01:00:00 15,8 6,5 29 16 SSE 1008,9 50
11.11.2018 00:00:00 - - - - - - -
10.11.2018 23:00:00 - - - - - - -
10.11.2018 22:00:00 12,8 10,9 13 7 ESE 1009,2 45
10.11.2018 21:00:00 - - - - - - -
10.11.2018 20:00:00 - - - - - - -
10.11.2018 19:00:00 14,0 12,2 26 14 W 1007,6 45
10.11.2018 18:00:00 - - - - - - -
10.11.2018 17:00:00 - - - - - - -
10.11.2018 16:00:00 18,8 8,5 28 15 S 1004,9 50
10.11.2018 15:00:00 - - - - - - -
10.11.2018 14:00:00 - - - - - - -
10.11.2018 13:00:00 13,0 12,8 9 5 SE 1007,6 5
10.11.2018 12:00:00 - - - - - - -
10.11.2018 11:00:00 - - - - - - -
10.11.2018 10:00:00 15,4 8,4 35 19 SSE 1006,2 30
10.11.2018 09:00:00 - - - - - - -
10.11.2018 08:00:00 - - - - - - -
10.11.2018 07:00:00 16,1 7,6 28 15 SE 1006,0 50
10.11.2018 06:00:00 - - - - - - -
10.11.2018 05:00:00 - - - - - - -
10.11.2018 04:00:00 15,2 7,2 54 29 S 1006,2 50
10.11.2018 03:00:00 - - - - - - -
10.11.2018 02:00:00 - - - - - - -
10.11.2018 01:00:00 13,6 8,4 44 24 SSE 1008,7 70
10.11.2018 00:00:00 - - - - - - -
09.11.2018 23:00:00 - - - - - - -
09.11.2018 22:00:00 13,7 6,1 44 24 SSE 1010,2 30
09.11.2018 21:00:00 - - - - - - -
09.11.2018 20:00:00 - - - - - - -
09.11.2018 19:00:00 12,6 3,5 28 15 SE 1011,6 50
09.11.2018 18:00:00 - - - - - - -
09.11.2018 17:00:00 - - - - - - -
09.11.2018 16:00:00 14,8 5,3 22 12 SSE 1012,5 50
09.11.2018 15:00:00 - - - - - - -
09.11.2018 14:00:00 - - - - - - -
09.11.2018 13:00:00 13,4 7,0 8 4 SSE 1015,6 40
09.11.2018 12:00:00 - - - - - - -
09.11.2018 11:00:00 - - - - - - -
09.11.2018 10:00:00 10,2 8,1 9 5 SSW 1017,1 20
09.11.2018 09:00:00 - - - - - - -
09.11.2018 08:00:00 - - - - - - -
09.11.2018 07:00:00 10,2 7,3 18 10 WSW 1016,1 25
09.11.2018 06:00:00 - - - - - - -
09.11.2018 05:00:00 - - - - - - -
09.11.2018 04:00:00 10,5 9,1 29 16 W 1014,4 20
09.11.2018 03:00:00 - - - - - - -
09.11.2018 02:00:00 - - - - - - -
09.11.2018 01:00:00 11,0 7,5 15 8 SSW 1011,8 30
09.11.2018 00:00:00 - - - - - - -
08.11.2018 23:00:00 - - - - - - -
08.11.2018 22:00:00 14,7 5,8 26 14 SSE 1010,4 30
08.11.2018 21:00:00 - - - - - - -
08.11.2018 20:00:00 - - - - - - -
08.11.2018 19:00:00 14,7 4,4 41 22 SSE 1010,1 30
08.11.2018 18:00:00 - - - - - - -
08.11.2018 17:00:00 - - - - - - -
08.11.2018 16:00:00 15,8 5,1 42 23 SSE 1010,3 35
08.11.2018 15:00:00 - - - - - - -
08.11.2018 14:00:00 - - - - - - -
08.11.2018 13:00:00 14,2 5,0 42 23 SSE 1012,6 50

tt = temperature
td = dewpoint
ff = wind speed
dd = wind direction
ppp = reduced air pressure
vv = visibility

Next stations